COSMOS 2251 DEB, 36551

Orbit data source: Space-Track

COSMOS 2251 DEB, 36551 is space debris in LEO originally from a launch on Wed, 16 Jun 1993 UTC launched from the Plesetsk Missile And Space Complex (PKMTR). The debris from Iridium 33, an American commercial communications satellite, has been tracked extensively since its accidental collision with the defunct Russian satellite Cosmos 2251 in 2009. This event, occurring at high speed in low Earth orbit (LEO), generated thousands of pieces of space debris, significantly increasing the risk of further collisions. The Iridium 33 debris cloud has impacted space traffic management and orbital debris mitigation strategies, making it a subject of ongoing study in space situational awareness.

Loading next visibility...
Identifier
36551, 1993-036BDM
Orbit
LEO
Country
Flag of CISCIS
Related business
Manufacturer
Unknown
Mission
Spacecraft
Bus & Motor
Unknown
Mass
Unknown
Launch date (UTC)
1993-06-16 (33 years ago)
Launch vehicle
Unknown
Launch site
Plesetsk Missile And Space Complex (PKMTR)
Object type
Payload
Rocket body
Debris
Shape & HBR
Unknown shape, 0.1 m
Radar Cross Section
Small (<0.1 m²)

Expand to show TLE details & history
Last TLE update: 1 day ago

TLE from 1 day ago
0 COSMOS 2251 DEB
1 36551U 93036BDM 25351.02668024  .00012873  00000-0  93894-3 0  9992
2 36551  73.8870   5.8751 0050776 314.3814  45.3220 15.02702962669966
Epoch: 2025-12-17T00:38Z
TLE epoch observation values (Epoch: 2025-12-17T00:38:25.172Z)
Latitude
0.00004°
Longitude
-89.63222°
Altitude
536.57 km
Speed
7.608 km/s
True Right ascension
00h 23m 30s
True Declination
0° 00' 00"
Sunlit
Object was in daylight at epoch
Visualization orbit readout
Latitude
Unknown
Longitude
Unknown
Altitude
Unknown
Speed
Unknown
Apparent Right ascension
Unknown
Apparent Declination
Unknown
Sunlit
N/A
Visualization observer readout
Local Sidereal Time
04:06:40
Azimuth
Unknown
Elevation
Unknown
Doppler factor
Unknown
Orbital elements
Apogee altitude
591.339 km
Perigee altitude
520.92 km
Semi-major axis
6,934.266 km
Eccentricity
0.00508
Inclination
73.887°
RAAN
5.8751°
Arg. of periapsis
314.3814°
True anomaly
45.73759°
Mean anomaly
45.322°
Eccentric anomaly
45.52961°
Mean motion
3.75874 °/min
Orbital period
95.78 mins
BSTAR
0.00093894

Documentation

Showing up to 5 results
|